Location: Newark
(5.8900°S, 42.6378°W)
Time: 23:39:44
(UTC+00:00)

RS-15 - Visible Passes

Search period start: 21 October 2019 00:00
Search period end: 31 October 2019 00:00
Orbit: 1900 x 2144 km, 64.8° (Epoch: 20 October)

Date Brightness Start Highest point End Pass type
(mag) Time Alt. Az. Time Alt. Az. Time Alt. Az.
21 Oct 9.2 06:02:11 10° N 06:12:11 36° ENE 06:22:32 10° SE visible
22 Oct 9.6 05:27:46 10° NNE 05:36:17 24° ENE 05:45:00 10° ESE visible
22 Oct 8.1 07:36:56 10° NW 07:48:02 59° WSW 07:59:45 10° S visible
23 Oct 9.9 04:54:35 10° NE 05:00:21 15° ENE 05:06:11 10° ESE visible
23 Oct 8.0 07:00:39 10° NNW 07:12:02 80° WSW 07:24:02 10° SSE visible
24 Oct 8.1 06:26:11 15° NNW 06:36:05 76° ENE 06:48:00 10° SSE visible
25 Oct 8.5 05:52:52 24° N 06:00:10 55° ENE 06:11:38 10° SE visible
25 Oct 8.9 08:03:17 10° WNW 08:12:26 27° WSW 08:21:59 10° S visible
26 Oct 8.9 05:19:24 28° NNE 05:24:17 38° ENE 05:34:50 10° SE visible
26 Oct 8.5 07:27:15 14° NW 07:36:14 40° WSW 07:47:08 10° S visible
27 Oct 9.3 04:45:46 24° NE 04:48:24 26° ENE 04:57:25 10° ESE visible
27 Oct 8.1 06:53:37 28° NW 07:00:09 56° WSW 07:11:48 10° S visible
28 Oct 9.7 04:12:00 16° ENE 04:12:27 16° ENE 04:18:52 10° ESE visible
28 Oct 7.9 06:19:50 46° NW 06:24:09 77° WSW 06:36:09 10° SSE visible
29 Oct 8.0 05:45:57 64° N 05:48:11 79° ENE 06:00:10 10° SSE visible
29 Oct 9.2 07:54:15 10° W 08:00:55 17° WSW 08:07:48 10° SSW visible
30 Oct 8.3 05:11:58 58° ENE 05:12:17 58° ENE 05:23:50 10° SE visible
30 Oct 8.9 07:19:47 20° W 07:24:35 26° WSW 07:33:54 10° SSW visible
